Location: Crescent
(42.8242°N, 73.7329°W)
Time: 21:00:37
(UTC+00:00)

Vanguard 2 Rocket - Pass Details

Date: 24 February 2026
Orbit: 553 x 3287 km, 32.9° (Epoch: 5 March)

Event Time Altitude Azimuth Distance (km) Brightness Sun altitude
Rises 13:15:01 0° 204° (SSW) 6,430 11.3 15.7°
Reaches altitude 10° 13:19:49 10° 195° (SSW) 5,725 11.2 16.4°
Maximum altitude 13:34:37 31° 142° (SE) 4,698 12.2 18.8°
Drops below altitude 10° 13:49:54 10° 91° (E) 5,969 12.1 21.1°
Sets 13:54:57 0° 82° (E) 6,739 12.0 21.8°
